Flag for Russia Weather past 2 weeks in Surgut, Russia

Now
30 °F

Broken clouds.


Feels Like: 24 °F
Forecast: 17 / 33 °F
Wind: 6 mph from West

Location: Surgut Airport

Current Time: Mar 30, 2015 at 11:25:03 AM

Latest Report: Mar 30, 2015 at 11:00 AM


Visibility: 4 mi

Pressure: 30.18 "Hg

Humidity: 64%

Dew point: 19 °F

Location of SurgutLocation

Historic Weather in Surgut — Graph

°F

Surgut temperature yesterday

Maximum temperature yesterday: 32 °F (at 4:30 PM)
Minimum temperature yesterday: 3 °F (at 1:30 AM)
Average temperature yesterday: 18 °F

Past Weeks' High & Low Weather Summary

 TemperatureHumidityPressure
High41 °F (Mar 20, 2:00 PM)100% (Mar 17, 2:30 PM)30.66 "Hg (Mar 17, 2:30 PM)
Low-11 °F (Mar 28, 5:00 AM)40% (Mar 29, 3:00 PM)29.18 "Hg (Mar 23, 7:00 AM)
Average20 °F72%29.87 "Hg
* Reported Mar 15 10:00 AM — Mar 30 10:00 AM, Surgut, Weather by CustomWeather, © 2015

Note: Actual official high and low records may vary slightly from our data, if they occured in-between our weather recording intervals... More about our weather records

Advertising

Surgut weather history for previous 24 hours

 ConditionsComfort  
Time TempWeatherWind HumidityBarometerVisibility
10:00 AM
Mon, Mar 30
28 °FBroken clouds.8 mph64%30.18 "Hg4 mi
9:30 AM27 °FPartly sunny.8 mph69%30.18 "Hg4 mi
9:00 AM25 °FBroken clouds.10 mph69%30.15 "Hg4 mi
8:30 AM25 °FPartly sunny.10 mph63%30.15 "Hg4 mi
7:30 AM23 °FPartly sunny.10 mph63%30.15 "Hg4 mi
7:00 AM23 °FPartly sunny.10 mph58%30.12 "Hg4 mi
6:30 AM23 °FPassing clouds.10 mph58%30.12 "Hg4 mi
6:00 AM23 °FPassing clouds.8 mph58%30.12 "Hg4 mi
5:30 AM21 °FPassing clouds.10 mph63%30.12 "Hg4 mi
5:00 AM21 °FPassing clouds.8 mph58%30.12 "Hg4 mi
4:30 AM21 °FPassing clouds.8 mph58%30.12 "Hg4 mi
4:00 AM21 °FPassing clouds.8 mph58%30.15 "Hg4 mi
3:30 AM21 °FPassing clouds.10 mph58%30.15 "Hg4 mi
3:00 AM23 °FPassing clouds.10 mph54%30.15 "Hg4 mi
2:30 AM23 °FPassing clouds.13 mph54%30.15 "Hg4 mi
2:00 AM21 °FPassing clouds.8 mph58%30.15 "Hg4 mi
1:30 AM21 °FPassing clouds.8 mph58%30.15 "Hg4 mi
1:00 AM21 °FPassing clouds.8 mph58%30.15 "Hg4 mi
12:30 AM21 °FPassing clouds.8 mph58%30.18 "Hg4 mi
12:00 AM23 °FPassing clouds.8 mph54%30.18 "Hg4 mi
11:30 PM
Sun, Mar 29
23 °FPassing clouds.10 mph58%30.18 "Hg4 mi
11:00 PM23 °FClear.10 mph58%30.21 "Hg4 mi
10:30 PM25 °FClear.10 mph54%30.21 "Hg4 mi
10:00 PM25 °FClear.10 mph50%30.21 "Hg4 mi
9:30 PM25 °FClear.13 mph54%30.24 "Hg4 mi
9:00 PM25 °FClear.13 mph54%30.24 "Hg4 mi
8:30 PM27 °FPassing clouds.13 mph50%30.24 "Hg4 mi
8:00 PM27 °FPassing clouds.15 mph50%30.27 "Hg4 mi
7:30 PM27 °FPassing clouds.15 mph50%30.27 "Hg4 mi
7:00 PM28 °FPassing clouds.17 mph47%30.27 "Hg4 mi
6:30 PM28 °FSunny.17 mph47%30.30 "Hg4 mi
6:00 PM30 °FSunny.17 mph43%30.30 "Hg4 mi
5:30 PM30 °FSunny.17 mph43%30.30 "Hg4 mi
5:00 PM30 °FSunny.20 mph43%30.30 "Hg4 mi
4:30 PM32 °FSunny.20 mph40%30.33 "Hg4 mi
4:00 PM30 °FSunny.22 mph47%30.33 "Hg4 mi
3:30 PM30 °FSunny.17 mph43%30.33 "Hg4 mi
3:00 PM30 °FSunny.17 mph40%30.36 "Hg4 mi
2:30 PM28 °FScattered clouds.15 mph43%30.36 "Hg4 mi
2:00 PM27 °FScattered clouds.13 mph46%30.39 "Hg4 mi
1:30 PM27 °FScattered clouds.13 mph46%30.39 "Hg4 mi
1:00 PM25 °FScattered clouds.15 mph46%30.42 "Hg4 mi
12:30 PM23 °FScattered clouds.13 mph46%30.42 "Hg4 mi
12:00 PM21 °FScattered clouds.15 mph49%30.45 "Hg4 mi
11:30 AM19 °FScattered clouds.13 mph49%30.45 "Hg4 mi
11:00 AM18 °FScattered clouds.13 mph49%30.45 "Hg4 mi
Weather by CustomWeather, © 2015

See weather overviewHow to use our weather pages